AAL1 KSAN-KSFO

Flight info

Callsign AAL1
Flight time 0h 59m
Altitude 36000
Route PADRZ2 IKAYE RIZIN SPLNT STOKD SERFR SERFR4
Aircraft B738/M-VGDW/C

Departure

Time 2026-04-20 23:11
Airport San Diego International Airport (KSAN)

Arrival

Time 2026-04-21 00:10
Airport San Francisco International Airport (KSFO)
Time Latitude Longitude Altitude Speed Heading
2026-04-20 22:06 32.73412 -117.20184 22 ft 0 kts 167°
2026-04-20 22:56 32.73425 -117.20187 22 ft 2 kts 167°
2026-04-20 22:57 32.73435 -117.20190 22 ft 0 kts 167°
2026-04-20 22:57 32.73449 -117.20196 22 ft 2 kts 140°
2026-04-20 22:57 32.73459 -117.20209 22 ft 2 kts 115°
2026-04-20 22:57 32.73462 -117.20227 22 ft 2 kts 89°
2026-04-20 22:58 32.73459 -117.20245 22 ft 2 kts 62°
2026-04-20 22:58 32.73450 -117.20258 22 ft 2 kts 36°
2026-04-20 22:58 32.73440 -117.20264 22 ft 0 kts 17°
2026-04-20 22:58 32.73433 -117.20267 22 ft 0 kts 14°
2026-04-20 22:59 32.73432 -117.20267 22 ft 0 kts 14°
2026-04-20 23:00 32.73434 -117.20267 22 ft 1 kts 14°
2026-04-20 23:01 32.73460 -117.20259 22 ft 0 kts 14°
2026-04-20 23:01 32.73461 -117.20258 22 ft 2 kts 14°
2026-04-20 23:01 32.73534 -117.20176 22 ft 20 kts 84°
2026-04-20 23:01 32.73526 -117.20100 22 ft 7 kts 104°
2026-04-20 23:02 32.73512 -117.20041 23 ft 6 kts 108°
2026-04-20 23:02 32.73497 -117.19979 23 ft 12 kts 102°
2026-04-20 23:02 32.73464 -117.19830 23 ft 20 kts 109°
2026-04-20 23:02 32.73418 -117.19672 24 ft 19 kts 103°
2026-04-20 23:03 32.73387 -117.19518 24 ft 18 kts 105°
2026-04-20 23:03 32.73351 -117.19371 25 ft 18 kts 105°
2026-04-20 23:03 32.73317 -117.19229 25 ft 17 kts 107°
2026-04-20 23:03 32.73280 -117.19077 25 ft 16 kts 106°
2026-04-20 23:04 32.73270 -117.19040 25 ft 0 kts 108°
2026-04-20 23:05 32.73259 -117.19001 25 ft 16 kts 111°
2026-04-20 23:05 32.73215 -117.18808 25 ft 25 kts 105°
2026-04-20 23:06 32.73196 -117.18730 25 ft 0 kts 107°
2026-04-20 23:07 32.73184 -117.18681 25 ft 14 kts 105°
2026-04-20 23:08 32.73147 -117.18520 25 ft 18 kts 107°
2026-04-20 23:08 32.73109 -117.18374 25 ft 18 kts 105°
2026-04-20 23:08 32.73076 -117.18231 25 ft 17 kts 106°
2026-04-20 23:08 32.73038 -117.18070 26 ft 23 kts 107°
2026-04-20 23:09 32.72988 -117.17872 26 ft 25 kts 108°
2026-04-20 23:09 32.72953 -117.17703 27 ft 16 kts 90°
2026-04-20 23:09 32.72990 -117.17579 28 ft 12 kts 52°
2026-04-20 23:09 32.73025 -117.17604 27 ft 7 kts 292°
2026-04-20 23:10 32.73028 -117.17612 27 ft 0 kts 292°
2026-04-20 23:10 32.73056 -117.17730 27 ft 47 kts 285°
2026-04-20 23:10 32.73212 -117.18376 26 ft 114 kts 286°
2026-04-20 23:11 32.73484 -117.19496 26 ft 168 kts 286°
2026-04-20 23:11 32.73814 -117.20879 606 ft 172 kts 285°
2026-04-20 23:11 32.74240 -117.22171 1268 ft 172 kts 302°
2026-04-20 23:11 32.74993 -117.23375 1588 ft 189 kts 307°
2026-04-20 23:12 32.75812 -117.24665 1938 ft 203 kts 305°
2026-04-20 23:12 32.76629 -117.26039 2517 ft 204 kts 304°
2026-04-20 23:12 32.77462 -117.27485 2878 ft 217 kts 304°
2026-04-20 23:12 32.78342 -117.29031 3115 ft 239 kts 304°
2026-04-20 23:13 32.79298 -117.30720 3552 ft 254 kts 304°
2026-04-20 23:13 32.80329 -117.32467 4107 ft 264 kts 306°
2026-04-20 23:13 32.81456 -117.34210 4837 ft 266 kts 307°
2026-04-20 23:13 32.82590 -117.35950 5380 ft 276 kts 307°
2026-04-20 23:14 32.83732 -117.37729 6362 ft 266 kts 306°
2026-04-20 23:14 32.84797 -117.39391 7452 ft 253 kts 306°
2026-04-20 23:14 32.85903 -117.41088 7908 ft 267 kts 306°
2026-04-20 23:14 32.87064 -117.42875 8522 ft 276 kts 306°
2026-04-20 23:15 32.88278 -117.44754 8879 ft 294 kts 306°
2026-04-20 23:15 32.89520 -117.46677 9608 ft 298 kts 306°
2026-04-20 23:15 32.90779 -117.48630 10345 ft 302 kts 306°
2026-04-20 23:15 32.92075 -117.50647 10851 ft 315 kts 305°
2026-04-20 23:16 32.93445 -117.52781 11332 ft 330 kts 305°
2026-04-20 23:16 32.94862 -117.54990 11804 ft 345 kts 305°
2026-04-20 23:16 32.96341 -117.57296 12234 ft 359 kts 305°
2026-04-20 23:16 32.97865 -117.59673 12855 ft 367 kts 305°
2026-04-20 23:17 32.99418 -117.62093 13557 ft 372 kts 305°
2026-04-20 23:17 33.01009 -117.64574 14334 ft 376 kts 305°
2026-04-20 23:17 33.02593 -117.67046 15050 ft 380 kts 304°
2026-04-20 23:17 33.04199 -117.69552 15796 ft 384 kts 304°
2026-04-20 23:18 33.05873 -117.72036 16473 ft 389 kts 307°
2026-04-20 23:18 33.07729 -117.74392 17194 ft 395 kts 312°
2026-04-20 23:18 33.09755 -117.76622 17874 ft 401 kts 315°
2026-04-20 23:18 33.11874 -117.78783 18558 ft 405 kts 316°
2026-04-20 23:19 33.14053 -117.80940 19196 ft 410 kts 317°
2026-04-20 23:19 33.16258 -117.83121 19806 ft 414 kts 317°
2026-04-20 23:19 33.18483 -117.85339 20441 ft 418 kts 316°
2026-04-20 23:19 33.20692 -117.87605 21092 ft 420 kts 314°
2026-04-20 23:20 33.22832 -117.90003 21676 ft 423 kts 311°
2026-04-20 23:20 33.23703 -117.91027 21959 ft 424 kts 311°
2026-04-20 23:20 33.25791 -117.93540 22530 ft 427 kts 310°
2026-04-20 23:20 33.27889 -117.96102 23102 ft 431 kts 310°
2026-04-20 23:21 33.29974 -117.98656 23646 ft 434 kts 310°
2026-04-20 23:21 33.32082 -118.01228 24200 ft 437 kts 310°
2026-04-20 23:21 33.34230 -118.03833 24723 ft 440 kts 311°
2026-04-20 23:21 33.36367 -118.06415 25240 ft 444 kts 311°
2026-04-20 23:22 33.38543 -118.09035 25804 ft 446 kts 311°
2026-04-20 23:22 33.40729 -118.11665 26352 ft 447 kts 311°
2026-04-20 23:22 33.42952 -118.14333 26847 ft 450 kts 311°
2026-04-20 23:22 33.45138 -118.16958 27357 ft 452 kts 311°
2026-04-20 23:23 33.47370 -118.19638 27801 ft 456 kts 311°
2026-04-20 23:23 33.49608 -118.22329 28297 ft 458 kts 311°
2026-04-20 23:23 33.51858 -118.25034 28766 ft 460 kts 311°
2026-04-20 23:23 33.54130 -118.27768 29257 ft 462 kts 311°
2026-04-20 23:24 33.56406 -118.30508 29751 ft 463 kts 311°
2026-04-20 23:24 33.58658 -118.33221 30177 ft 466 kts 311°
2026-04-20 23:24 33.60943 -118.35977 30662 ft 466 kts 311°
2026-04-20 23:24 33.63232 -118.38738 31280 ft 463 kts 310°
2026-04-20 23:25 33.65469 -118.41436 31851 ft 461 kts 310°
2026-04-20 23:25 33.67738 -118.44179 32017 ft 467 kts 310°
2026-04-20 23:25 33.72285 -118.49686 32023 ft 459 kts 310°
2026-04-20 23:26 33.76764 -118.55119 32021 ft 460 kts 310°
2026-04-20 23:26 33.81272 -118.60598 32025 ft 459 kts 310°
2026-04-20 23:27 33.85766 -118.66068 32026 ft 460 kts 309°
2026-04-20 23:27 33.90246 -118.71529 32021 ft 458 kts 309°
2026-04-20 23:28 33.94714 -118.76982 32012 ft 455 kts 309°
2026-04-20 23:28 33.99165 -118.82426 32021 ft 466 kts 309°
2026-04-20 23:29 34.03773 -118.88087 32015 ft 476 kts 309°
2026-04-20 23:29 34.08393 -118.93751 32023 ft 476 kts 309°
2026-04-20 23:30 34.12988 -118.99526 32026 ft 473 kts 306°
2026-04-20 23:30 34.16941 -119.05800 32019 ft 470 kts 298°
2026-04-20 23:31 34.20428 -119.12430 32015 ft 467 kts 296°
2026-04-20 23:31 34.23785 -119.19115 32014 ft 466 kts 296°
2026-04-20 23:32 34.27142 -119.25798 32017 ft 467 kts 296°
2026-04-20 23:32 34.30542 -119.32501 32016 ft 466 kts 296°
2026-04-20 23:33 34.33934 -119.39156 32021 ft 466 kts 296°
2026-04-20 23:33 34.37343 -119.45834 32005 ft 466 kts 296°
2026-04-20 23:34 34.40854 -119.52391 32000 ft 467 kts 301°
2026-04-20 23:34 34.45092 -119.58462 32010 ft 476 kts 308°
2026-04-20 23:35 34.52100 -119.67029 32019 ft 477 kts 309°
2026-04-20 23:36 34.56781 -119.72653 32014 ft 477 kts 309°
2026-04-20 23:36 34.60540 -119.77216 32021 ft 477 kts 309°
2026-04-20 23:37 34.65179 -119.82902 32018 ft 477 kts 309°
2026-04-20 23:37 34.69813 -119.88623 32011 ft 476 kts 308°
2026-04-20 23:38 34.74451 -119.94373 32022 ft 476 kts 308°
2026-04-20 23:38 34.79102 -120.00153 32033 ft 476 kts 308°
2026-04-20 23:39 34.83712 -120.05892 32031 ft 475 kts 308°
2026-04-20 23:39 34.88337 -120.11661 32026 ft 476 kts 308°
2026-04-20 23:40 34.92954 -120.17428 32021 ft 476 kts 308°
2026-04-20 23:40 34.97566 -120.23199 32012 ft 476 kts 308°
2026-04-20 23:41 35.02173 -120.28975 32007 ft 476 kts 308°
2026-04-20 23:41 35.06787 -120.34769 31998 ft 476 kts 308°
2026-04-20 23:42 35.11441 -120.40491 32001 ft 478 kts 310°
2026-04-20 23:42 35.16342 -120.46017 31998 ft 481 kts 312°
2026-04-20 23:43 35.21294 -120.51460 32001 ft 481 kts 313°
2026-04-20 23:43 35.26273 -120.56959 31999 ft 482 kts 312°
2026-04-20 23:44 35.31227 -120.62483 31999 ft 482 kts 312°
2026-04-20 23:44 35.36167 -120.68030 31993 ft 480 kts 311°
2026-04-20 23:45 35.41087 -120.73578 31994 ft 481 kts 311°
2026-04-20 23:45 35.45973 -120.79105 31992 ft 481 kts 311°
2026-04-20 23:46 35.51037 -120.84545 31981 ft 485 kts 315°
2026-04-20 23:46 35.56385 -120.89574 31977 ft 488 kts 318°
2026-04-20 23:47 35.61817 -120.94497 31975 ft 488 kts 318°
2026-04-20 23:47 35.67296 -120.99483 31970 ft 489 kts 318°
2026-04-20 23:48 35.72733 -121.04488 31971 ft 488 kts 317°
2026-04-20 23:48 35.78133 -121.09507 31973 ft 488 kts 317°
2026-04-20 23:49 35.83532 -121.14550 31968 ft 489 kts 317°
2026-04-20 23:49 35.88924 -121.19601 31971 ft 488 kts 317°
2026-04-20 23:50 35.94325 -121.24674 31968 ft 489 kts 317°
2026-04-20 23:50 35.99717 -121.29745 31960 ft 489 kts 317°
2026-04-20 23:50 36.02418 -121.32287 31800 ft 487 kts 317°
2026-04-20 23:51 36.05087 -121.34795 31428 ft 478 kts 317°
2026-04-20 23:51 36.07733 -121.37218 31090 ft 470 kts 319°
2026-04-20 23:51 36.10430 -121.39484 30600 ft 466 kts 321°
2026-04-20 23:51 36.13165 -121.41650 29962 ft 465 kts 322°
2026-04-20 23:52 36.15900 -121.43756 29344 ft 462 kts 322°
2026-04-20 23:52 36.18589 -121.45804 28831 ft 458 kts 322°
2026-04-20 23:52 36.21304 -121.47871 28198 ft 456 kts 322°
2026-04-20 23:52 36.23992 -121.49929 27580 ft 454 kts 322°
2026-04-20 23:53 36.26658 -121.51981 26985 ft 451 kts 322°
2026-04-20 23:53 36.29308 -121.54032 26390 ft 448 kts 321°
2026-04-20 23:53 36.31931 -121.56070 25854 ft 444 kts 321°
2026-04-20 23:53 36.34530 -121.58099 25311 ft 440 kts 321°
2026-04-20 23:54 36.37105 -121.60114 24682 ft 439 kts 321°
2026-04-20 23:54 36.39661 -121.62118 24208 ft 434 kts 321°
2026-04-20 23:54 36.42204 -121.64116 23576 ft 433 kts 321°
2026-04-20 23:54 36.44726 -121.66102 23079 ft 428 kts 320°
2026-04-20 23:55 36.47218 -121.68063 22587 ft 425 kts 320°
2026-04-20 23:55 36.49727 -121.70041 22086 ft 421 kts 320°
2026-04-20 23:55 36.52183 -121.71979 21584 ft 418 kts 320°
2026-04-20 23:55 36.54620 -121.73906 21087 ft 415 kts 320°
2026-04-20 23:56 36.57013 -121.75799 20661 ft 410 kts 320°
2026-04-20 23:56 36.59409 -121.77696 20134 ft 408 kts 320°
2026-04-20 23:56 36.61791 -121.79584 19618 ft 406 kts 320°
2026-04-20 23:56 36.64162 -121.81466 19053 ft 405 kts 320°
2026-04-20 23:57 36.66540 -121.83353 18595 ft 400 kts 320°
2026-04-20 23:57 36.68863 -121.85197 18116 ft 397 kts 320°
2026-04-20 23:57 36.71182 -121.87026 17655 ft 394 kts 321°
2026-04-20 23:57 36.73555 -121.88714 17094 ft 397 kts 327°
2026-04-20 23:58 36.76111 -121.90039 16611 ft 399 kts 336°
2026-04-20 23:58 36.78777 -121.90991 16175 ft 397 kts 342°
2026-04-20 23:58 36.81474 -121.91750 15698 ft 395 kts 344°
2026-04-20 23:58 36.84157 -121.92429 15258 ft 393 kts 345°
2026-04-20 23:59 36.86824 -121.93094 14751 ft 391 kts 345°
2026-04-20 23:59 36.89467 -121.93768 14451 ft 383 kts 345°
2026-04-20 23:59 36.92031 -121.94442 14318 ft 370 kts 345°
2026-04-20 23:59 36.94508 -121.95110 14257 ft 358 kts 344°
2026-04-21 00:00 36.96877 -121.95829 14167 ft 344 kts 341°
2026-04-21 00:00 36.99131 -121.96671 14003 ft 334 kts 338°
2026-04-21 00:00 37.01333 -121.97577 13608 ft 333 kts 338°
2026-04-21 00:00 37.03523 -121.98492 13229 ft 332 kts 338°
2026-04-21 00:01 37.05722 -121.99394 12879 ft 330 kts 338°
2026-04-21 00:01 37.07902 -122.00266 12573 ft 328 kts 339°
2026-04-21 00:01 37.10074 -122.01122 12195 ft 326 kts 339°
2026-04-21 00:01 37.12212 -122.01959 11797 ft 325 kts 340°
2026-04-21 00:02 37.14369 -122.02801 11436 ft 322 kts 340°
2026-04-21 00:02 37.16515 -122.03642 11102 ft 320 kts 340°
2026-04-21 00:02 37.18610 -122.04461 10719 ft 320 kts 340°
2026-04-21 00:02 37.20735 -122.05293 10385 ft 317 kts 340°
2026-04-21 00:03 37.22847 -122.06121 10011 ft 316 kts 340°
2026-04-21 00:03 37.24941 -122.06942 9667 ft 314 kts 340°
2026-04-21 00:03 37.27006 -122.07753 9299 ft 313 kts 340°
2026-04-21 00:03 37.29091 -122.08572 8959 ft 311 kts 340°
2026-04-21 00:04 37.31155 -122.09383 8630 ft 309 kts 340°
2026-04-21 00:04 37.33175 -122.10179 8289 ft 307 kts 340°
2026-04-21 00:04 37.35222 -122.10987 7937 ft 306 kts 340°
2026-04-21 00:04 37.37293 -122.11806 7240 ft 318 kts 340°
2026-04-21 00:05 37.39436 -122.12613 6319 ft 337 kts 342°
2026-04-21 00:05 37.41756 -122.13421 5238 ft 353 kts 343°
2026-04-21 00:05 37.44147 -122.14221 4412 ft 356 kts 343°
2026-04-21 00:05 37.46519 -122.15005 3928 ft 348 kts 343°
2026-04-21 00:06 37.48804 -122.15746 3523 ft 338 kts 343°
2026-04-21 00:06 37.51067 -122.16496 3223 ft 325 kts 341°
2026-04-21 00:06 37.53099 -122.17516 2999 ft 299 kts 326°
2026-04-21 00:06 37.54546 -122.19101 2918 ft 252 kts 301°
2026-04-21 00:07 37.55249 -122.20931 2648 ft 221 kts 281°
2026-04-21 00:07 37.55778 -122.22685 2348 ft 208 kts 290°
2026-04-21 00:07 37.56506 -122.24239 2027 ft 196 kts 298°
2026-04-21 00:07 37.57202 -122.25595 1963 ft 178 kts 295°
2026-04-21 00:08 37.57801 -122.26968 1535 ft 182 kts 292°
2026-04-21 00:08 37.58354 -122.28347 1302 ft 167 kts 290°
2026-04-21 00:08 37.58846 -122.29622 1073 ft 159 kts 291°
2026-04-21 00:08 37.59318 -122.30835 769 ft 153 kts 292°
2026-04-21 00:09 37.59797 -122.32033 576 ft 151 kts 294°
2026-04-21 00:09 37.60286 -122.33206 367 ft 154 kts 294°
2026-04-21 00:09 37.60789 -122.34388 207 ft 151 kts 295°
2026-04-21 00:09 37.61286 -122.35557 75 ft 151 kts 295°
2026-04-21 00:10 37.61763 -122.36711 14 ft 139 kts 295°
2026-04-21 00:10 37.62114 -122.37532 22 ft 72 kts 298°
2026-04-21 00:10 37.62220 -122.37972 28 ft 51 kts 271°
2026-04-21 00:10 37.62203 -122.38267 30 ft 24 kts 231°
2026-04-21 00:11 37.62071 -122.38339 31 ft 17 kts 189°
2026-04-21 00:11 37.61990 -122.38258 31 ft 15 kts 116°
2026-04-21 00:11 37.61935 -122.38186 31 ft 11 kts 170°
2026-04-21 00:11 37.61871 -122.38169 31 ft 3 kts 165°
2026-04-21 00:12 37.61857 -122.38165 31 ft 0 kts 165°